To NAV CANADA Home Page Login to a new session Search on AWWS site Feedback and Comments Disclaimer Vers la page française équivalente Tips FAQ What's new on the site To the Forecasts and Observations / NOTAM section To "File a Flight Plan" website Publications and other links Update of the User's profile FIC Telephone Numbers My Weather Data Folder Route Weather Data Regional Weather Data Local Weather Data To the Forecasts and Observations / NOTAM section
Request Generated 02/28/2015 at 22:58:47 UTC . Weather information available at that time is displayed.

METAR/TAF

HOPE/BC    (show WxCam)

METAR CYHE 282200Z AUTO 14005KT 110V190 9SM CLR 12/M07 A3022 RMK
SLP236=
METAR CYHE 282100Z AUTO 16006KT 120V200 9SM CLR 10/M09 A3025 RMK
SLP245=
METAR CYHE 282000Z AUTO 12008KT 9SM CLR 10/M08 A3028 RMK SLP256=

CYHE - No TAF is issued for this station

Your time UTC time
Weather data provided by Environment Canada and NAV CANADA